{"data":{"norad_id":59786,"intl_designator":"2024-093E","name":"STARLINK-31862","alt_names":[],"object_type":"PAYLOAD","status":"ACTIVE","operator":null,"country":"US","launch_date":"2024-05-18","launch_site_code":"AFETR","launch_vehicle":null,"mission":null,"orbit_class":"UNKNOWN","rcs_meters":null,"size_class":null,"mass_kg":null,"dimensions":null,"purposes":["comms"],"wikipedia_slug":null,"has_3d_model":false,"image_url":null,"decayed_at":null,"tle_current":{"epoch":"2026-05-25T00:34:41.285280Z","epoch_age_seconds":76139,"freshness":"FRESH","line1":"1 59786U 24093E   26145.02408895 -.00000125  00000+0  49827-5 0  9990","line2":"2 59786  43.0004 137.4705 0000979 277.2920  82.7821 15.27576107114374","mean_motion":15.27576107,"eccentricity":9.79e-5,"inclination_deg":43.0004,"raan_deg":137.4705,"arg_perigee_deg":277.292,"mean_anomaly_deg":82.7821,"bstar":4.9827e-6,"rev_number":11437,"period_min":94.266988950751,"perigee_km":482.38904184688,"apogee_km":483.73246436694,"semimajor_km":6861.1977531069,"source":"CELESTRAK","updated_at":"2026-05-25T13:38:19.080873Z"}}}